TimeEST,TemperatureF,Dew PointF,Humidity,Sea Level PressureIn,VisibilityMPH,Wind Direction,Wind SpeedMPH,Gust SpeedMPH,PrecipitationIn,Events,Conditions,WindDirDegrees,DateUTC
12:15 AM,37.8,28.2,68,29.90,10.0,Calm,Calm,-,N/A,,Overcast,0,2013-03-02 05:15:00
12:35 AM,37.9,28.4,69,29.90,10.0,Calm,Calm,-,N/A,,Overcast,0,2013-03-02 05:35:00
12:55 AM,37.4,28.9,71,29.90,10.0,Calm,Calm,-,N/A,,Overcast,0,2013-03-02 05:55:00
1:15 AM,37.2,30.0,75,29.89,10.0,Calm,Calm,-,N/A,,Overcast,0,2013-03-02 06:15:00
1:35 AM,37.4,28.9,71,29.89,10.0,Calm,Calm,-,N/A,,Overcast,0,2013-03-02 06:35:00
1:55 AM,36.5,31.3,81,29.89,10.0,Calm,Calm,-,N/A,,Overcast,0,2013-03-02 06:55:00
2:15 AM,36.7,30.6,78,29.89,10.0,Calm,Calm,-,N/A,,Overcast,0,2013-03-02 07:15:00
2:35 AM,36.3,30.2,78,29.89,10.0,Calm,Calm,-,N/A,,Overcast,0,2013-03-02 07:35:00
2:55 AM,35.8,29.8,79,29.89,10.0,Calm,Calm,-,N/A,,Overcast,0,2013-03-02 07:55:00
3:15 AM,36.5,30.2,78,29.89,10.0,Calm,Calm,-,N/A,,Overcast,0,2013-03-02 08:15:00
3:35 AM,35.8,31.1,83,29.88,10.0,Calm,Calm,-,N/A,Rain,Light Rain,0,2013-03-02 08:35:00
3:55 AM,36.3,30.6,80,29.88,10.0,North,3.5,-,N/A,Rain,Light Rain,360,2013-03-02 08:55:00
4:15 AM,36.0,31.6,84,29.88,10.0,Calm,Calm,-,N/A,Rain,Light Rain,0,2013-03-02 09:15:00
4:35 AM,35.8,31.8,86,29.87,10.0,NW,3.5,-,N/A,Rain,Light Rain,320,2013-03-02 09:35:00
4:55 AM,35.4,32.0,87,29.87,10.0,NW,3.5,-,N/A,,Overcast,320,2013-03-02 09:55:00
5:15 AM,34.7,32.2,91,29.87,10.0,NNW,3.5,-,N/A,Rain,Light Rain,330,2013-03-02 10:15:00
5:35 AM,33.6,32.2,94,29.88,10.0,Calm,Calm,-,N/A,Rain,Light Rain,0,2013-03-02 10:35:00
5:55 AM,33.4,32.5,96,29.89,10.0,Calm,Calm,-,N/A,Rain,Light Rain,0,2013-03-02 10:55:00
6:15 AM,33.3,32.4,96,29.88,7.0,Calm,Calm,-,N/A,Rain,Light Rain,0,2013-03-02 11:15:00
6:35 AM,33.3,32.5,97,29.87,7.0,Calm,Calm,-,N/A,Rain,Light Rain,0,2013-03-02 11:35:00
6:55 AM,33.3,32.9,99,29.89,7.0,Calm,Calm,-,N/A,Rain,Light Rain,0,2013-03-02 11:55:00
7:15 AM,33.1,32.7,99,29.89,5.0,Calm,Calm,-,N/A,Rain,Light Rain,0,2013-03-02 12:15:00
7:35 AM,33.3,33.1,99,29.89,5.0,Calm,Calm,-,N/A,Rain,Light Rain,0,2013-03-02 12:35:00
7:55 AM,33.3,32.9,99,29.89,7.0,Calm,Calm,-,N/A,,Overcast,0,2013-03-02 12:55:00
8:15 AM,33.8,33.3,98,29.90,10.0,Calm,Calm,-,N/A,,Overcast,0,2013-03-02 13:15:00
8:35 AM,34.3,33.8,98,29.90,10.0,Calm,Calm,-,N/A,,Overcast,0,2013-03-02 13:35:00
8:55 AM,34.9,34.0,97,29.90,10.0,Calm,Calm,-,N/A,,Overcast,0,2013-03-02 13:55:00
9:15 AM,36.3,34.9,95,29.89,10.0,Calm,Calm,-,N/A,,Overcast,0,2013-03-02 14:15:00
9:35 AM,36.7,34.5,92,29.89,10.0,Calm,Calm,-,N/A,,Overcast,0,2013-03-02 14:35:00
9:55 AM,37.8,33.6,85,29.89,10.0,Calm,Calm,-,N/A,,Overcast,0,2013-03-02 14:55:00
10:15 AM,37.9,33.3,83,29.89,10.0,Calm,Calm,-,N/A,,Overcast,0,2013-03-02 15:15:00
10:35 AM,41.5,33.6,73,29.89,10.0,Calm,Calm,-,N/A,,Overcast,0,2013-03-02 15:35:00
10:55 AM,41.4,31.5,68,29.88,10.0,Calm,Calm,-,N/A,,Overcast,0,2013-03-02 15:55:00
11:15 AM,41.7,29.5,62,29.88,10.0,Calm,Calm,-,N/A,,Overcast,0,2013-03-02 16:15:00
11:35 AM,42.4,30.4,62,29.87,10.0,Calm,Calm,-,N/A,,Overcast,0,2013-03-02 16:35:00
11:55 AM,41.9,30.6,64,29.87,10.0,Calm,Calm,-,N/A,,Overcast,0,2013-03-02 16:55:00
12:15 PM,42.6,30.4,62,29.87,10.0,Calm,Calm,-,N/A,,Overcast,0,2013-03-02 17:15:00
12:35 PM,42.1,29.5,61,29.86,10.0,WSW,3.5,-,N/A,,Overcast,250,2013-03-02 17:35:00
12:55 PM,42.6,29.3,59,29.85,10.0,Calm,Calm,-,N/A,,Overcast,0,2013-03-02 17:55:00
1:15 PM,42.8,28.8,58,29.85,10.0,Calm,Calm,-,N/A,,Overcast,0,2013-03-02 18:15:00
1:35 PM,39.7,30.2,69,29.84,5.0,ENE,3.5,-,N/A,Rain,Light Rain,60,2013-03-02 18:35:00
1:55 PM,41.9,31.6,67,29.84,10.0,Calm,Calm,-,N/A,,Overcast,0,2013-03-02 18:55:00
2:15 PM,42.3,30.6,63,29.83,10.0,Calm,Calm,-,N/A,,Overcast,0,2013-03-02 19:15:00
2:35 PM,45.3,29.7,54,29.82,10.0,Calm,Calm,-,N/A,,Overcast,0,2013-03-02 19:35:00
2:55 PM,45.1,27.7,50,29.82,10.0,Calm,Calm,-,N/A,,Overcast,0,2013-03-02 19:55:00
3:15 PM,43.7,27.3,53,29.82,10.0,NNE,6.9,-,N/A,,Overcast,30,2013-03-02 20:15:00
3:35 PM,42.6,26.4,53,29.83,10.0,North,13.8,-,N/A,,Overcast,10,2013-03-02 20:35:00
3:55 PM,41.9,25.0,51,29.83,10.0,North,8.1,-,N/A,,Overcast,10,2013-03-02 20:55:00
4:15 PM,41.9,25.0,51,29.84,10.0,North,5.8,-,N/A,,Overcast,360,2013-03-02 21:15:00
4:35 PM,42.4,24.8,50,29.84,10.0,North,3.5,-,N/A,,Overcast,10,2013-03-02 21:35:00
4:55 PM,44.1,24.4,46,29.85,10.0,North,4.6,-,N/A,,Overcast,350,2013-03-02 21:55:00
5:15 PM,40.5,25.5,55,29.85,10.0,North,10.4,20.7,N/A,,Overcast,360,2013-03-02 22:15:00
5:35 PM,40.8,25.3,54,29.86,10.0,North,8.1,-,N/A,,Overcast,360,2013-03-02 22:35:00
5:55 PM,40.3,24.8,54,29.87,10.0,North,6.9,-,N/A,,Overcast,360,2013-03-02 22:55:00
6:15 PM,39.4,24.4,55,29.87,10.0,North,5.8,-,N/A,,Overcast,360,2013-03-02 23:15:00
6:35 PM,38.5,24.1,56,29.88,10.0,North,5.8,-,N/A,,Overcast,350,2013-03-02 23:35:00
6:55 PM,37.4,24.1,59,29.89,10.0,Calm,Calm,-,N/A,,Overcast,0,2013-03-02 23:55:00
7:15 PM,37.0,23.9,59,29.90,10.0,Calm,Calm,-,N/A,,Mostly Cloudy,0,2013-03-03 00:15:00
7:35 PM,36.1,23.0,59,29.90,10.0,North,3.5,-,N/A,,Mostly Cloudy,350,2013-03-03 00:35:00
7:55 PM,35.2,22.6,60,29.90,10.0,North,3.5,-,N/A,,Scattered Clouds,350,2013-03-03 00:55:00
8:15 PM,34.5,22.3,61,29.91,10.0,Calm,Calm,-,N/A,,Clear,0,2013-03-03 01:15:00
8:35 PM,33.8,22.1,62,29.91,10.0,Calm,Calm,-,N/A,,Clear,0,2013-03-03 01:35:00
8:55 PM,33.3,21.9,63,29.92,10.0,Calm,Calm,-,N/A,,Clear,0,2013-03-03 01:55:00
9:15 PM,32.2,22.5,67,29.92,10.0,Calm,Calm,-,N/A,,Clear,0,2013-03-03 02:15:00
9:35 PM,32.0,22.5,68,29.93,10.0,Calm,Calm,-,N/A,,Clear,0,2013-03-03 02:35:00
9:55 PM,32.0,21.9,66,29.93,10.0,Calm,Calm,-,N/A,,Clear,0,2013-03-03 02:55:00
10:15 PM,32.2,21.2,64,29.93,10.0,Calm,Calm,-,N/A,,Clear,0,2013-03-03 03:15:00
10:35 PM,32.0,21.0,64,29.93,10.0,North,4.6,-,N/A,,Clear,10,2013-03-03 03:35:00
10:55 PM,31.5,21.0,65,29.93,10.0,North,3.5,-,N/A,,Clear,360,2013-03-03 03:55:00
11:15 PM,30.4,20.8,68,29.93,10.0,Calm,Calm,-,N/A,,Clear,0,2013-03-03 04:15:00
11:35 PM,30.7,20.3,65,29.93,10.0,North,3.5,-,N/A,,Clear,10,2013-03-03 04:35:00
11:55 PM,30.7,19.9,64,29.93,10.0,North,5.8,-,N/A,,Clear,10,2013-03-03 04:55:00